Year,Month,Day,Hour,Minute,Value (Times are PST for temperature in C)
2021,08,10,00,00,18.10
2021,08,10,00,01,18.10
2021,08,10,00,02,18.10
2021,08,10,00,03,18.10
2021,08,10,00,04,18.00
2021,08,10,00,05,17.90
2021,08,10,00,06,17.90
2021,08,10,00,07,17.80
2021,08,10,00,08,17.80
2021,08,10,00,09,17.80
2021,08,10,00,10,17.70
2021,08,10,00,11,17.70
2021,08,10,00,12,17.70
2021,08,10,00,13,17.60
2021,08,10,00,14,17.60
2021,08,10,00,15,17.60
2021,08,10,00,16,17.50
2021,08,10,00,17,17.50
2021,08,10,00,18,17.40
2021,08,10,00,19,17.40
2021,08,10,00,20,17.30
2021,08,10,00,21,17.30
2021,08,10,00,22,17.30
2021,08,10,00,23,17.20
2021,08,10,00,24,17.20
2021,08,10,00,25,17.20
2021,08,10,00,26,17.10
2021,08,10,00,27,17.10
2021,08,10,00,28,17.00
2021,08,10,00,29,17.00
2021,08,10,00,30,17.00
2021,08,10,00,31,16.90
2021,08,10,00,32,16.90
2021,08,10,00,33,16.90
2021,08,10,00,34,16.90
2021,08,10,00,35,16.90
2021,08,10,00,36,16.90
2021,08,10,00,37,16.80
2021,08,10,00,38,16.80
2021,08,10,00,39,16.80
2021,08,10,00,40,16.80
2021,08,10,00,41,16.80
2021,08,10,00,42,16.80
2021,08,10,00,43,16.80
2021,08,10,00,44,16.80
2021,08,10,00,45,16.70
2021,08,10,00,46,16.70
2021,08,10,00,47,16.70
2021,08,10,00,48,16.70
2021,08,10,00,49,16.70
2021,08,10,00,50,16.70
2021,08,10,00,51,16.70
2021,08,10,00,52,16.70
2021,08,10,00,53,16.70
2021,08,10,00,54,16.70
2021,08,10,00,55,16.70
2021,08,10,00,56,16.60
2021,08,10,00,57,16.60
2021,08,10,00,58,16.60
2021,08,10,00,59,16.60
2021,08,10,01,00,16.60
2021,08,10,01,01,16.60
2021,08,10,01,02,16.60
2021,08,10,01,03,16.50
2021,08,10,01,04,16.50
2021,08,10,01,05,16.50
2021,08,10,01,06,16.50
2021,08,10,01,07,16.50
2021,08,10,01,08,16.40
2021,08,10,01,09,16.40
2021,08,10,01,10,16.40
2021,08,10,01,11,16.40
2021,08,10,01,12,16.40
2021,08,10,01,13,16.40
2021,08,10,01,14,16.30
2021,08,10,01,15,16.30
2021,08,10,01,16,16.30
2021,08,10,01,17,16.30
2021,08,10,01,18,16.30
2021,08,10,01,19,16.30
2021,08,10,01,20,16.30
2021,08,10,01,21,16.30
2021,08,10,01,22,16.30
2021,08,10,01,23,16.30
2021,08,10,01,24,16.30
2021,08,10,01,25,16.30
2021,08,10,01,26,16.30
2021,08,10,01,27,16.30
2021,08,10,01,28,16.30
2021,08,10,01,29,16.30
2021,08,10,01,30,16.20
2021,08,10,01,31,16.20
2021,08,10,01,32,16.20
2021,08,10,01,33,16.20
2021,08,10,01,34,16.20
2021,08,10,01,35,16.20
2021,08,10,01,36,16.20
2021,08,10,01,37,16.20
2021,08,10,01,38,16.20
2021,08,10,01,39,16.20
2021,08,10,01,40,16.20
2021,08,10,01,41,16.10
2021,08,10,01,42,16.10
2021,08,10,01,43,16.10
2021,08,10,01,44,16.10
2021,08,10,01,45,16.10
2021,08,10,01,46,16.10
2021,08,10,01,47,16.10
2021,08,10,01,48,16.10
2021,08,10,01,49,16.10
2021,08,10,01,50,16.10
2021,08,10,01,51,16.10
2021,08,10,01,52,16.10
2021,08,10,01,53,16.00
2021,08,10,01,54,16.00
2021,08,10,01,55,15.90
2021,08,10,01,56,15.90
2021,08,10,01,57,15.90
2021,08,10,01,58,15.90
2021,08,10,01,59,15.90
2021,08,10,02,00,15.90
2021,08,10,02,01,15.80
2021,08,10,02,02,15.80
2021,08,10,02,03,15.80
2021,08,10,02,04,15.80
2021,08,10,02,05,15.80
2021,08,10,02,06,15.80
2021,08,10,02,07,15.80
2021,08,10,02,08,15.80
2021,08,10,02,09,15.80
2021,08,10,02,10,15.80
2021,08,10,02,11,15.80
2021,08,10,02,12,15.80
2021,08,10,02,13,15.80
2021,08,10,02,14,15.80
2021,08,10,02,15,15.70
2021,08,10,02,16,15.70
2021,08,10,02,17,15.70
2021,08,10,02,18,15.70
2021,08,10,02,19,15.70
2021,08,10,02,20,15.70
2021,08,10,02,21,15.70
2021,08,10,02,22,15.70
2021,08,10,02,23,15.70
2021,08,10,02,24,15.60
2021,08,10,02,25,15.60
2021,08,10,02,26,15.60
2021,08,10,02,27,15.60
2021,08,10,02,28,15.60
2021,08,10,02,29,15.60
2021,08,10,02,30,15.60
2021,08,10,02,31,15.60
2021,08,10,02,32,15.60
2021,08,10,02,33,15.50
2021,08,10,02,34,15.60
2021,08,10,02,35,15.50
2021,08,10,02,36,15.50
2021,08,10,02,37,15.50
2021,08,10,02,38,15.50
2021,08,10,02,39,15.50
2021,08,10,02,40,15.50
2021,08,10,02,41,15.40
2021,08,10,02,42,15.40
2021,08,10,02,43,15.40
2021,08,10,02,44,15.40
2021,08,10,02,45,15.40
2021,08,10,02,46,15.40
2021,08,10,02,47,15.40
2021,08,10,02,48,15.40
2021,08,10,02,49,15.40
2021,08,10,02,50,15.40
2021,08,10,02,51,15.30
2021,08,10,02,52,15.30
2021,08,10,02,53,15.30
2021,08,10,02,54,15.30
2021,08,10,02,55,15.30
2021,08,10,02,56,15.30
2021,08,10,02,57,15.30
2021,08,10,02,58,15.20
2021,08,10,02,59,15.20
2021,08,10,03,00,15.20
2021,08,10,03,01,15.20
2021,08,10,03,02,15.20
2021,08,10,03,03,15.20
2021,08,10,03,04,15.20
2021,08,10,03,05,15.20
2021,08,10,03,06,15.20
2021,08,10,03,07,15.20
2021,08,10,03,08,15.20
2021,08,10,03,09,15.20
2021,08,10,03,10,15.20
2021,08,10,03,11,15.20
2021,08,10,03,12,15.10
2021,08,10,03,13,15.10
2021,08,10,03,14,15.10
2021,08,10,03,15,15.10
2021,08,10,03,16,15.10
2021,08,10,03,17,15.10
2021,08,10,03,18,15.10
2021,08,10,03,19,15.10
2021,08,10,03,20,15.10
2021,08,10,03,21,15.10
2021,08,10,03,22,15.10
2021,08,10,03,23,15.10
2021,08,10,03,24,15.10
2021,08,10,03,25,15.00
2021,08,10,03,26,15.00
2021,08,10,03,27,15.00
2021,08,10,03,28,15.00
2021,08,10,03,29,15.00
2021,08,10,03,30,15.00
2021,08,10,03,31,14.90
2021,08,10,03,32,14.90
2021,08,10,03,33,14.90
2021,08,10,03,34,14.90
2021,08,10,03,35,14.90
2021,08,10,03,36,14.90
2021,08,10,03,37,14.90
2021,08,10,03,38,14.90
2021,08,10,03,39,14.90
2021,08,10,03,40,14.90
2021,08,10,03,41,14.90
2021,08,10,03,42,14.90
2021,08,10,03,43,14.90
2021,08,10,03,44,14.90
2021,08,10,03,45,14.90
2021,08,10,03,46,14.90
2021,08,10,03,47,14.90
2021,08,10,03,48,14.90
2021,08,10,03,49,14.90
2021,08,10,03,50,14.90
2021,08,10,03,51,14.90
2021,08,10,03,52,14.90
2021,08,10,03,53,14.90
2021,08,10,03,54,14.90
2021,08,10,03,55,14.90
2021,08,10,03,56,14.80
2021,08,10,03,57,14.80
2021,08,10,03,58,14.80
2021,08,10,03,59,14.80
2021,08,10,04,00,14.80
2021,08,10,04,01,14.80
2021,08,10,04,02,14.80
2021,08,10,04,03,14.80
2021,08,10,04,04,14.80
2021,08,10,04,05,14.80
2021,08,10,04,06,14.80
2021,08,10,04,07,14.80
2021,08,10,04,08,14.80
2021,08,10,04,09,14.80
2021,08,10,04,10,14.70
2021,08,10,04,11,14.70
2021,08,10,04,12,14.70
2021,08,10,04,13,14.70
2021,08,10,04,14,14.70
2021,08,10,04,15,14.70
2021,08,10,04,16,14.70
2021,08,10,04,17,14.70
2021,08,10,04,18,14.70
2021,08,10,04,19,14.70
2021,08,10,04,20,14.70
2021,08,10,04,21,14.70
2021,08,10,04,22,14.70
2021,08,10,04,23,14.70
2021,08,10,04,24,14.70
2021,08,10,04,25,14.70
2021,08,10,04,26,14.70
2021,08,10,04,27,14.70
2021,08,10,04,28,14.70
2021,08,10,04,29,14.70
2021,08,10,04,30,14.60
2021,08,10,04,31,14.60
2021,08,10,04,32,14.60
2021,08,10,04,33,14.60
2021,08,10,04,34,14.60
2021,08,10,04,35,14.60
2021,08,10,04,36,14.60
2021,08,10,04,37,14.60
2021,08,10,04,38,14.60
2021,08,10,04,39,14.60
2021,08,10,04,40,14.60
2021,08,10,04,41,14.60
2021,08,10,04,42,14.60
2021,08,10,04,43,14.60
2021,08,10,04,44,14.60
2021,08,10,04,45,14.60
2021,08,10,04,46,14.50
2021,08,10,04,47,14.50
2021,08,10,04,48,14.50
2021,08,10,04,49,14.50
2021,08,10,04,50,14.50
2021,08,10,04,51,14.50
2021,08,10,04,52,14.50
2021,08,10,04,53,14.50
2021,08,10,04,54,14.40
2021,08,10,04,55,14.40
2021,08,10,04,56,14.40
2021,08,10,04,57,14.40
2021,08,10,04,58,14.40
2021,08,10,04,59,14.40
2021,08,10,05,00,14.40
2021,08,10,05,01,14.40
2021,08,10,05,02,14.40
2021,08,10,05,03,14.40
2021,08,10,05,04,14.40
2021,08,10,05,05,14.40
2021,08,10,05,06,14.40
2021,08,10,05,07,14.40
2021,08,10,05,08,14.30
2021,08,10,05,09,14.30
2021,08,10,05,10,14.30
2021,08,10,05,11,14.30
2021,08,10,05,12,14.30
2021,08,10,05,13,14.30
2021,08,10,05,14,14.30
2021,08,10,05,15,14.30
2021,08,10,05,16,14.30
2021,08,10,05,17,14.30
2021,08,10,05,18,14.30
2021,08,10,05,19,14.30
2021,08,10,05,20,14.30
2021,08,10,05,21,14.30
2021,08,10,05,22,14.30
2021,08,10,05,23,14.30
2021,08,10,05,24,14.20
2021,08,10,05,25,14.20
2021,08,10,05,26,14.20
2021,08,10,05,27,14.20
2021,08,10,05,28,14.20
2021,08,10,05,29,14.20
2021,08,10,05,30,14.20
2021,08,10,05,31,14.20
2021,08,10,05,32,14.20
2021,08,10,05,33,14.20
2021,08,10,05,34,14.20
2021,08,10,05,35,14.20
2021,08,10,05,36,14.10
2021,08,10,05,37,14.10
2021,08,10,05,38,14.10
2021,08,10,05,39,14.10
2021,08,10,05,40,14.10
2021,08,10,05,41,14.10
2021,08,10,05,42,14.10
2021,08,10,05,43,14.10
2021,08,10,05,44,14.10
2021,08,10,05,45,14.10
2021,08,10,05,46,14.10
2021,08,10,05,47,14.10
2021,08,10,05,48,14.00
2021,08,10,05,49,14.00
2021,08,10,05,50,14.00
2021,08,10,05,51,14.00
2021,08,10,05,52,14.00
2021,08,10,05,53,14.00
2021,08,10,05,54,14.10
2021,08,10,05,55,14.10
2021,08,10,05,56,14.10
2021,08,10,05,57,14.10
2021,08,10,05,58,14.10
2021,08,10,05,59,14.10
2021,08,10,06,00,14.10
2021,08,10,06,01,14.10
2021,08,10,06,02,14.10
2021,08,10,06,03,14.00
2021,08,10,06,04,14.00
2021,08,10,06,05,14.00
2021,08,10,06,06,14.00
2021,08,10,06,07,14.00
2021,08,10,06,08,14.00
2021,08,10,06,09,14.00
2021,08,10,06,10,14.00
2021,08,10,06,11,14.00
2021,08,10,06,12,14.00
2021,08,10,06,13,14.00
2021,08,10,06,14,14.00
2021,08,10,06,15,14.00
2021,08,10,06,16,14.00
2021,08,10,06,17,14.00
2021,08,10,06,18,14.00
2021,08,10,06,19,14.00
2021,08,10,06,20,14.10
2021,08,10,06,21,14.10
2021,08,10,06,22,14.10
2021,08,10,06,23,14.00
2021,08,10,06,24,14.00
2021,08,10,06,25,14.00
2021,08,10,06,26,14.00
2021,08,10,06,27,14.00
2021,08,10,06,28,14.00
2021,08,10,06,29,14.00
2021,08,10,06,30,14.00
2021,08,10,06,31,14.00
2021,08,10,06,32,14.00
2021,08,10,06,33,14.00
2021,08,10,06,34,14.00
2021,08,10,06,35,14.00
2021,08,10,06,36,14.10
2021,08,10,06,37,14.10
2021,08,10,06,38,14.00
2021,08,10,06,39,14.00
2021,08,10,06,40,14.00
2021,08,10,06,41,14.00
2021,08,10,06,42,14.00
2021,08,10,06,43,14.00
2021,08,10,06,44,14.00
2021,08,10,06,45,14.10
2021,08,10,06,46,14.00
2021,08,10,06,47,14.00
2021,08,10,06,48,14.00
2021,08,10,06,49,14.00
2021,08,10,06,50,14.00
2021,08,10,06,51,14.00
2021,08,10,06,52,14.00
2021,08,10,06,53,14.00
2021,08,10,06,54,14.00
2021,08,10,06,55,14.00
2021,08,10,06,56,14.10
2021,08,10,06,57,14.10
2021,08,10,06,58,14.10
2021,08,10,06,59,14.10
2021,08,10,07,00,14.10
2021,08,10,07,01,14.10
2021,08,10,07,02,14.10
2021,08,10,07,03,14.10
2021,08,10,07,04,14.10
2021,08,10,07,05,14.10
2021,08,10,07,06,14.10
2021,08,10,07,07,14.10
2021,08,10,07,08,14.10
2021,08,10,07,09,14.10
2021,08,10,07,10,14.10
2021,08,10,07,11,14.10
2021,08,10,07,12,14.10
2021,08,10,07,13,14.10
2021,08,10,07,14,14.20
2021,08,10,07,15,14.20
2021,08,10,07,16,14.20
2021,08,10,07,17,14.20
2021,08,10,07,18,14.20
2021,08,10,07,19,14.20
2021,08,10,07,20,14.20
2021,08,10,07,21,14.20
2021,08,10,07,22,14.20
2021,08,10,07,23,14.20
2021,08,10,07,24,14.20
2021,08,10,07,25,14.20
2021,08,10,07,26,14.20
2021,08,10,07,27,14.20
2021,08,10,07,28,14.20
2021,08,10,07,29,14.20
2021,08,10,07,30,14.30
2021,08,10,07,31,14.30
2021,08,10,07,32,14.30
2021,08,10,07,33,14.30
2021,08,10,07,34,14.30
2021,08,10,07,35,14.30
2021,08,10,07,36,14.30
2021,08,10,07,37,14.30
2021,08,10,07,38,14.40
2021,08,10,07,39,14.40
2021,08,10,07,40,14.40
2021,08,10,07,41,14.40
2021,08,10,07,42,14.50
2021,08,10,07,43,14.50
2021,08,10,07,44,14.60
2021,08,10,07,45,14.60
2021,08,10,07,46,14.70
2021,08,10,07,47,14.70
2021,08,10,07,48,14.80
2021,08,10,07,49,14.80
2021,08,10,07,50,14.90
2021,08,10,07,51,15.00
2021,08,10,07,52,15.10
2021,08,10,07,53,15.10
2021,08,10,07,54,15.20
2021,08,10,07,55,15.30
2021,08,10,07,56,15.30
2021,08,10,07,57,15.30
2021,08,10,07,58,15.40
2021,08,10,07,59,15.50
2021,08,10,08,00,15.50
2021,08,10,08,01,15.60
2021,08,10,08,02,15.60
2021,08,10,08,03,15.70
2021,08,10,08,04,15.70
2021,08,10,08,05,15.80
2021,08,10,08,06,15.90
2021,08,10,08,07,16.00
2021,08,10,08,08,16.00
2021,08,10,08,09,16.10
2021,08,10,08,10,16.20
2021,08,10,08,11,16.30
2021,08,10,08,12,16.40
2021,08,10,08,13,16.40
2021,08,10,08,14,16.50
2021,08,10,08,15,16.60
2021,08,10,08,16,16.70
2021,08,10,08,17,16.80
2021,08,10,08,18,16.90
2021,08,10,08,19,17.10
2021,08,10,08,20,17.20
2021,08,10,08,21,17.30
2021,08,10,08,22,17.30
2021,08,10,08,23,17.40
2021,08,10,08,24,17.50
2021,08,10,08,25,17.60
2021,08,10,08,26,17.60
2021,08,10,08,27,17.60
2021,08,10,08,28,17.60
2021,08,10,08,29,17.60
2021,08,10,08,30,17.60
2021,08,10,08,31,17.60
2021,08,10,08,32,17.60
2021,08,10,08,33,17.70
2021,08,10,08,34,17.80
2021,08,10,08,35,17.80
2021,08,10,08,36,17.90
2021,08,10,08,37,18.00
2021,08,10,08,38,18.10
2021,08,10,08,39,18.10
2021,08,10,08,40,18.20
2021,08,10,08,41,18.30
2021,08,10,08,42,18.40
2021,08,10,08,43,18.40
2021,08,10,08,44,18.40
2021,08,10,08,45,18.40
2021,08,10,08,46,18.50
2021,08,10,08,47,18.50
2021,08,10,08,48,18.60
2021,08,10,08,49,18.60
2021,08,10,08,50,18.70
2021,08,10,08,51,18.70
2021,08,10,08,52,18.80
2021,08,10,08,53,18.80
2021,08,10,08,54,18.80
2021,08,10,08,55,18.80
2021,08,10,08,56,18.80
2021,08,10,08,57,18.80
2021,08,10,08,58,18.80
2021,08,10,08,59,18.80
2021,08,10,09,00,18.90
2021,08,10,09,01,18.90
2021,08,10,09,02,18.90
2021,08,10,09,03,18.90
2021,08,10,09,04,18.90
2021,08,10,09,05,19.00
2021,08,10,09,06,19.10
2021,08,10,09,07,19.10
2021,08,10,09,08,19.10
2021,08,10,09,09,19.10
2021,08,10,09,10,19.10
2021,08,10,09,11,19.10
2021,08,10,09,12,19.20
2021,08,10,09,13,19.20
2021,08,10,09,14,19.20
2021,08,10,09,15,19.30
2021,08,10,09,16,19.30
2021,08,10,09,17,19.30
2021,08,10,09,18,19.30
2021,08,10,09,19,19.30
2021,08,10,09,20,19.40
2021,08,10,09,21,19.40
2021,08,10,09,22,19.40
2021,08,10,09,23,19.40
2021,08,10,09,24,19.40
2021,08,10,09,25,19.50
2021,08,10,09,26,19.50
2021,08,10,09,27,19.60
2021,08,10,09,28,19.60
2021,08,10,09,29,19.70
2021,08,10,09,30,19.70
2021,08,10,09,31,19.80
2021,08,10,09,32,19.80
2021,08,10,09,33,19.80
2021,08,10,09,34,19.90
2021,08,10,09,35,19.90
2021,08,10,09,36,19.90
2021,08,10,09,37,19.90
2021,08,10,09,38,19.90
2021,08,10,09,39,19.90
2021,08,10,09,40,19.90
2021,08,10,09,41,20.00
2021,08,10,09,42,20.00
2021,08,10,09,43,20.00
2021,08,10,09,44,20.10
2021,08,10,09,45,20.10
2021,08,10,09,46,20.10
2021,08,10,09,47,20.20
2021,08,10,09,48,20.20
2021,08,10,09,49,20.30
2021,08,10,09,50,20.30
2021,08,10,09,51,20.40
2021,08,10,09,52,20.40
2021,08,10,09,53,20.40
2021,08,10,09,54,20.40
2021,08,10,09,55,20.40
2021,08,10,09,56,20.50
2021,08,10,09,57,20.50
2021,08,10,09,58,20.60
2021,08,10,09,59,20.60
2021,08,10,10,00,20.70
2021,08,10,10,01,20.70
2021,08,10,10,02,20.70
2021,08,10,10,03,20.80
2021,08,10,10,04,20.80
2021,08,10,10,05,20.80
2021,08,10,10,06,20.80
2021,08,10,10,07,20.80
2021,08,10,10,08,20.90
2021,08,10,10,09,20.90
2021,08,10,10,10,21.00
2021,08,10,10,11,21.10
2021,08,10,10,12,21.20
2021,08,10,10,13,21.30
2021,08,10,10,14,21.50
2021,08,10,10,15,21.60
2021,08,10,10,16,21.80
2021,08,10,10,17,22.00
2021,08,10,10,18,22.20
2021,08,10,10,19,22.30
2021,08,10,10,20,22.30
2021,08,10,10,21,22.30
2021,08,10,10,22,22.30
2021,08,10,10,23,22.40
2021,08,10,10,24,22.40
2021,08,10,10,25,22.50
2021,08,10,10,26,22.50
2021,08,10,10,27,22.60
2021,08,10,10,28,22.60
2021,08,10,10,29,22.60
2021,08,10,10,30,22.60
2021,08,10,10,31,22.60
2021,08,10,10,32,22.70
2021,08,10,10,33,22.80
2021,08,10,10,34,22.90
2021,08,10,10,35,22.90
2021,08,10,10,36,22.90
2021,08,10,10,37,22.90
2021,08,10,10,38,23.00
2021,08,10,10,39,23.10
2021,08,10,10,40,23.10
2021,08,10,10,41,23.20
2021,08,10,10,42,23.20
2021,08,10,10,43,23.30
2021,08,10,10,44,23.30
2021,08,10,10,45,23.30
2021,08,10,10,46,23.30
2021,08,10,10,47,23.40
2021,08,10,10,48,23.40
2021,08,10,10,49,23.40
2021,08,10,10,50,23.40
2021,08,10,10,51,23.40
2021,08,10,10,52,23.50
2021,08,10,10,53,23.60
2021,08,10,10,54,23.70
2021,08,10,10,55,23.80
2021,08,10,10,56,23.90
2021,08,10,10,57,23.90
2021,08,10,10,58,23.90
2021,08,10,10,59,23.90
2021,08,10,11,00,23.80
2021,08,10,11,01,23.80
2021,08,10,11,02,23.80
2021,08,10,11,03,23.80
2021,08,10,11,04,23.90
2021,08,10,11,05,24.00
2021,08,10,11,06,24.10
2021,08,10,11,07,24.20
2021,08,10,11,08,24.30
2021,08,10,11,09,24.30
2021,08,10,11,10,24.30
2021,08,10,11,11,24.30
2021,08,10,11,12,24.20
2021,08,10,11,13,24.20
2021,08,10,11,14,24.30
2021,08,10,11,15,24.30
2021,08,10,11,16,24.30
2021,08,10,11,17,24.30
2021,08,10,11,18,24.30
2021,08,10,11,19,24.30
2021,08,10,11,20,24.40
2021,08,10,11,21,24.50
2021,08,10,11,22,24.50
2021,08,10,11,23,24.60
2021,08,10,11,24,24.70
2021,08,10,11,25,24.70
2021,08,10,11,26,24.80
2021,08,10,11,27,24.80
2021,08,10,11,28,24.80
2021,08,10,11,29,24.80
2021,08,10,11,30,24.80
2021,08,10,11,31,24.80
2021,08,10,11,32,24.90
2021,08,10,11,33,24.90
2021,08,10,11,34,24.90
2021,08,10,11,35,25.00
2021,08,10,11,36,25.10
2021,08,10,11,37,25.10
2021,08,10,11,38,25.10
2021,08,10,11,39,25.20
2021,08,10,11,40,25.20
2021,08,10,11,41,25.20
2021,08,10,11,42,25.20
2021,08,10,11,43,25.30
2021,08,10,11,44,25.30
2021,08,10,11,45,25.40
2021,08,10,11,46,25.40
2021,08,10,11,47,25.40
2021,08,10,11,48,25.40
2021,08,10,11,49,25.50
2021,08,10,11,50,25.50
2021,08,10,11,51,25.60
2021,08,10,11,52,25.70
2021,08,10,11,53,25.70
2021,08,10,11,54,25.70
2021,08,10,11,55,25.80
2021,08,10,11,56,25.80
2021,08,10,11,57,25.90
2021,08,10,11,58,26.00
2021,08,10,11,59,26.20
2021,08,10,12,00,26.30
2021,08,10,12,01,26.40
2021,08,10,12,02,26.50
2021,08,10,12,03,26.60
2021,08,10,12,04,26.70
2021,08,10,12,05,26.70
2021,08,10,12,06,26.80
2021,08,10,12,07,26.80
2021,08,10,12,08,26.90
2021,08,10,12,09,27.00
2021,08,10,12,10,27.10
2021,08,10,12,11,27.30
2021,08,10,12,12,27.40
2021,08,10,12,13,27.40
2021,08,10,12,14,27.50
2021,08,10,12,15,27.50
2021,08,10,12,16,27.50
2021,08,10,12,17,27.40
2021,08,10,12,18,27.40
2021,08,10,12,19,27.40
2021,08,10,12,20,27.50
2021,08,10,12,21,27.50
2021,08,10,12,22,27.60
2021,08,10,12,23,27.70
2021,08,10,12,24,27.80
2021,08,10,12,25,27.90
2021,08,10,12,26,27.90
2021,08,10,12,27,27.90
2021,08,10,12,28,27.90
2021,08,10,12,29,28.00
2021,08,10,12,30,28.00
2021,08,10,12,31,28.10
2021,08,10,12,32,28.20
2021,08,10,12,33,28.30
2021,08,10,12,34,28.40
2021,08,10,12,35,28.40
2021,08,10,12,36,28.50
2021,08,10,12,37,28.60
2021,08,10,12,38,28.70
2021,08,10,12,39,28.70
2021,08,10,12,40,28.80
2021,08,10,12,41,29.00
2021,08,10,12,42,29.10
2021,08,10,12,43,29.20
2021,08,10,12,44,29.20
2021,08,10,12,45,29.20
2021,08,10,12,46,29.10
2021,08,10,12,47,29.00
2021,08,10,12,48,28.90
2021,08,10,12,49,28.90
2021,08,10,12,50,28.80
2021,08,10,12,51,28.80
2021,08,10,12,52,28.80
2021,08,10,12,53,28.80
2021,08,10,12,54,28.90
2021,08,10,12,55,28.90
2021,08,10,12,56,28.90
2021,08,10,12,57,29.00
2021,08,10,12,58,29.00
2021,08,10,12,59,29.10
2021,08,10,13,00,29.00
2021,08,10,13,01,29.00
2021,08,10,13,02,29.00
2021,08,10,13,03,28.90
2021,08,10,13,04,28.90
2021,08,10,13,05,29.00
2021,08,10,13,06,29.00
2021,08,10,13,07,29.10
2021,08,10,13,08,29.20
2021,08,10,13,09,29.20
2021,08,10,13,10,29.20
2021,08,10,13,11,29.20
2021,08,10,13,12,29.20
2021,08,10,13,13,29.30
2021,08,10,13,14,29.30
2021,08,10,13,15,29.30
2021,08,10,13,16,29.30
2021,08,10,13,17,29.30
2021,08,10,13,18,29.30
2021,08,10,13,19,29.30
2021,08,10,13,20,29.40
2021,08,10,13,21,29.40
2021,08,10,13,22,29.30
2021,08,10,13,23,29.30
2021,08,10,13,24,29.30
2021,08,10,13,25,29.30
2021,08,10,13,26,29.40
2021,08,10,13,27,29.50
2021,08,10,13,28,29.50
2021,08,10,13,29,29.60
2021,08,10,13,30,29.60
2021,08,10,13,31,29.70
2021,08,10,13,32,29.80
2021,08,10,13,33,29.80
2021,08,10,13,34,29.90
2021,08,10,13,35,30.00
2021,08,10,13,36,30.00
2021,08,10,13,37,30.00
2021,08,10,13,38,30.00
2021,08,10,13,39,30.00
2021,08,10,13,40,30.10
2021,08,10,13,41,30.10
2021,08,10,13,42,30.00
2021,08,10,13,43,30.00
2021,08,10,13,44,30.10
2021,08,10,13,45,30.10
2021,08,10,13,46,30.10
2021,08,10,13,47,30.10
2021,08,10,13,48,30.20
2021,08,10,13,49,30.20
2021,08,10,13,50,30.20
2021,08,10,13,51,30.20
2021,08,10,13,52,30.20
2021,08,10,13,53,30.20
2021,08,10,13,54,30.30
2021,08,10,13,55,30.30
2021,08,10,13,56,30.40
2021,08,10,13,57,30.50
2021,08,10,13,58,30.60
2021,08,10,13,59,30.70
2021,08,10,14,00,30.70
2021,08,10,14,01,30.80
2021,08,10,14,02,30.80
2021,08,10,14,03,30.80
2021,08,10,14,04,30.70
2021,08,10,14,05,30.70
2021,08,10,14,06,30.70
2021,08,10,14,07,30.60
2021,08,10,14,08,30.70
2021,08,10,14,09,30.70
2021,08,10,14,10,30.80
2021,08,10,14,11,30.80
2021,08,10,14,12,30.80
2021,08,10,14,13,30.90
2021,08,10,14,14,31.00
2021,08,10,14,15,31.20
2021,08,10,14,16,31.20
2021,08,10,14,17,31.20
2021,08,10,14,18,31.20
2021,08,10,14,19,31.20
2021,08,10,14,20,31.30
2021,08,10,14,21,31.30
2021,08,10,14,22,31.20
2021,08,10,14,23,31.30
2021,08,10,14,24,31.30
2021,08,10,14,25,31.40
2021,08,10,14,26,31.40
2021,08,10,14,27,31.40
2021,08,10,14,28,31.40
2021,08,10,14,29,31.40
2021,08,10,14,30,31.40
2021,08,10,14,31,31.50
2021,08,10,14,32,31.60
2021,08,10,14,33,31.60
2021,08,10,14,34,31.70
2021,08,10,14,35,31.70
2021,08,10,14,36,31.70
2021,08,10,14,37,31.70
2021,08,10,14,38,31.70
2021,08,10,14,39,31.70
2021,08,10,14,40,31.70
2021,08,10,14,41,31.70
2021,08,10,14,42,31.70
2021,08,10,14,43,31.70
2021,08,10,14,44,31.80
2021,08,10,14,45,31.80
2021,08,10,14,46,31.90
2021,08,10,14,47,32.00
2021,08,10,14,48,32.00
2021,08,10,14,49,32.00
2021,08,10,14,50,32.10
2021,08,10,14,51,32.10
2021,08,10,14,52,32.10
2021,08,10,14,53,32.10
2021,08,10,14,54,32.20
2021,08,10,14,55,32.20
2021,08,10,14,56,32.20
2021,08,10,14,57,32.30
2021,08,10,14,58,32.30
2021,08,10,14,59,32.30
2021,08,10,15,00,32.30
2021,08,10,15,01,32.30
2021,08,10,15,02,32.30
2021,08,10,15,03,32.30
2021,08,10,15,04,32.30
2021,08,10,15,05,32.30
2021,08,10,15,06,32.40
2021,08,10,15,07,32.40
2021,08,10,15,08,32.40
2021,08,10,15,09,32.40
2021,08,10,15,10,32.40
2021,08,10,15,11,32.40
2021,08,10,15,12,32.40
2021,08,10,15,13,32.40
2021,08,10,15,14,32.40
2021,08,10,15,15,32.50
2021,08,10,15,16,32.50
2021,08,10,15,17,32.50
2021,08,10,15,18,32.50
2021,08,10,15,19,32.50
2021,08,10,15,20,32.60
2021,08,10,15,21,32.60
2021,08,10,15,22,32.60
2021,08,10,15,23,32.40
2021,08,10,15,24,32.30
2021,08,10,15,25,32.30
2021,08,10,15,26,32.30
2021,08,10,15,27,32.30
2021,08,10,15,28,32.30
2021,08,10,15,29,32.30
2021,08,10,15,30,32.30
2021,08,10,15,31,32.40
2021,08,10,15,32,32.40
2021,08,10,15,33,32.50
2021,08,10,15,34,32.50
2021,08,10,15,35,32.60
2021,08,10,15,36,32.60
2021,08,10,15,37,32.60
2021,08,10,15,38,32.60
2021,08,10,15,39,32.60
2021,08,10,15,40,32.70
2021,08,10,15,41,32.70
2021,08,10,15,42,32.70
2021,08,10,15,43,32.70
2021,08,10,15,44,32.70
2021,08,10,15,45,32.70
2021,08,10,15,46,32.70
2021,08,10,15,47,32.70
2021,08,10,15,48,32.70
2021,08,10,15,49,32.70
2021,08,10,15,50,32.80
2021,08,10,15,51,32.90
2021,08,10,15,52,33.00
2021,08,10,15,53,33.10
2021,08,10,15,54,33.10
2021,08,10,15,55,33.20
2021,08,10,15,56,33.20
2021,08,10,15,57,33.20
2021,08,10,15,58,33.20
2021,08,10,15,59,33.10
2021,08,10,16,00,33.00
2021,08,10,16,01,33.00
2021,08,10,16,02,33.10
2021,08,10,16,03,33.10
2021,08,10,16,04,33.10
2021,08,10,16,05,33.10
2021,08,10,16,06,33.20
2021,08,10,16,07,33.30
2021,08,10,16,08,33.30
2021,08,10,16,09,33.30
2021,08,10,16,10,33.30
2021,08,10,16,11,33.30
2021,08,10,16,12,33.30
2021,08,10,16,13,33.20
2021,08,10,16,14,33.20
2021,08,10,16,15,33.10
2021,08,10,16,16,33.10
2021,08,10,16,17,33.10
2021,08,10,16,18,33.10
2021,08,10,16,19,33.10
2021,08,10,16,20,33.10
2021,08,10,16,21,33.10
2021,08,10,16,22,33.20
2021,08,10,16,23,33.20
2021,08,10,16,24,33.10
2021,08,10,16,25,33.20
2021,08,10,16,26,33.20
2021,08,10,16,27,33.20
2021,08,10,16,28,33.20
2021,08,10,16,29,33.20
2021,08,10,16,30,33.30
2021,08,10,16,31,33.30
2021,08,10,16,32,33.30
2021,08,10,16,33,33.30
2021,08,10,16,34,33.30
2021,08,10,16,35,33.30
2021,08,10,16,36,33.30
2021,08,10,16,37,33.40
2021,08,10,16,38,33.40
2021,08,10,16,39,33.30
2021,08,10,16,40,33.20
2021,08,10,16,41,33.10
2021,08,10,16,42,33.00
2021,08,10,16,43,32.90
2021,08,10,16,44,32.90
2021,08,10,16,45,32.80
2021,08,10,16,46,32.80
2021,08,10,16,47,32.80
2021,08,10,16,48,32.80
2021,08,10,16,49,32.70
2021,08,10,16,50,32.70
2021,08,10,16,51,32.70
2021,08,10,16,52,32.70
2021,08,10,16,53,32.70
2021,08,10,16,54,32.70
2021,08,10,16,55,32.70
2021,08,10,16,56,32.70
2021,08,10,16,57,32.80
2021,08,10,16,58,32.80
2021,08,10,16,59,32.80
2021,08,10,17,00,32.80
2021,08,10,17,01,32.80
2021,08,10,17,02,32.80
2021,08,10,17,03,32.80
2021,08,10,17,04,32.70
2021,08,10,17,05,32.70
2021,08,10,17,06,32.70
2021,08,10,17,07,32.70
2021,08,10,17,08,32.70
2021,08,10,17,09,32.80
2021,08,10,17,10,32.80
2021,08,10,17,11,32.80
2021,08,10,17,12,32.80
2021,08,10,17,13,32.70
2021,08,10,17,14,32.70
2021,08,10,17,15,32.70
2021,08,10,17,16,32.70
2021,08,10,17,17,32.70
2021,08,10,17,18,32.70
2021,08,10,17,19,32.60